| time (UTC) | temp F | wind direction | speed knots | gust knots | rain 1hr in | rain 24hr in | rain mn in | humidity % | barometer mb |
| 20260504204504 | 63 | 285 | 9.6 | 20.0 | 0.00 | 0.00 | 0.00 | 34 | 1001.1 |
| 20260504203049 | 63 | 318 | 7.8 | 17.4 | 0.00 | 0.00 | 0.00 | 31 | 1000.8 |
| 20260504201543 | 64 | 341 | 7.8 | 16.5 | 0.00 | 0.00 | 0.00 | 29 | 1001.0 |
| 20260504200021 | 64 | 307 | 7.0 | 15.6 | 0.00 | 0.00 | 0.00 | 29 | 1001.0 |
| 20260504194518 | 65 | 290 | 7.0 | 15.6 | 0.00 | 0.00 | 0.00 | 27 | 1000.9 |
| 20260504193117 | 65 | 295 | 7.0 | 14.8 | 0.00 | 0.00 | 0.00 | 28 | 1000.7 |
| 20260504191607 | 64 | 300 | 4.3 | 11.3 | 0.00 | 0.00 | 0.00 | 36 | 1000.6 |
| 20260504190116 | 65 | 308 | 6.1 | 28.7 | 0.00 | 0.00 | 0.00 | 29 | 1000.3 |
| 20260504184533 | 67 | 309 | 5.2 | 13.9 | 0.00 | 0.00 | 0.00 | 33 | 1000.2 |
| 20260504183032 | 66 | 293 | 6.1 | 20.9 | 0.00 | 0.00 | 0.00 | 36 | 1000.0 |
| 20260504181513 | 67 | 296 | 5.2 | 12.2 | 0.00 | 0.00 | 0.00 | 34 | 999.9 |
| 20260504180011 | 67 | 288 | 4.3 | 16.5 | 0.00 | 0.00 | 0.00 | 34 | 999.5 |
| 20260504174552 | 67 | 300 | 6.1 | 13.9 | 0.00 | 0.00 | 0.00 | 34 | 999.4 |
| 20260504173049 | 66 | 297 | 4.3 | 17.4 | 0.00 | 0.00 | 0.00 | 34 | 999.4 |
| 20260504171535 | 65 | 310 | 7.0 | 13.9 | 0.00 | 0.00 | 0.00 | 37 | 999.3 |
| 20260504081556 | 51 | 224 | 7.8 | 11.3 | 0.00 | 0.00 | 0.00 | 57 | 999.4 |
| 20260504044528 | 55 | 217 | 5.2 | 7.0 | 0.00 | 0.00 | 0.00 | 46 | 1002.6 |
| 20260504043023 | 55 | 217 | 5.2 | 7.8 | 0.00 | 0.00 | 0.00 | 47 | 1002.8 |
| 20260504041520 | 54 | 206 | 3.5 | 6.1 | 0.00 | 0.00 | 0.00 | 47 | 1003.0 |
| 20260504040018 | 55 | 204 | 4.3 | 7.0 | 0.00 | 0.00 | 0.00 | 46 | 1003.3 |
| 20260504034516 | 56 | 225 | 4.3 | 7.0 | 0.00 | 0.00 | 0.00 | 43 | 1003.5 |
| 20260504033013 | 54 | 212 | 4.3 | 5.2 | 0.00 | 0.00 | 0.00 | 47 | 1003.7 |
| 20260504031510 | 56 | 198 | 3.5 | 5.2 | 0.00 | 0.00 | 0.00 | 44 | 1004.0 |
| 20260504030008 | 57 | 217 | 0.9 | 3.5 | 0.00 | 0.00 | 0.00 | 43 | 1004.1 |
| 20260504024609 | 57 | 212 | 1.7 | 4.3 | 0.00 | 0.00 | 0.00 | 43 | 1004.1 |
| 20260504023053 | 59 | 202 | 0.0 | 2.6 | 0.00 | 0.00 | 0.00 | 39 | 1004.0 |
| 20260504021547 | 63 | 231 | 0.0 | 1.7 | 0.00 | 0.00 | 0.00 | 32 | 1003.9 |
| 20260504020046 | 64 | 260 | 0.0 | 0.9 | 0.00 | 0.00 | 0.00 | 32 | 1003.9 |
| 20260504014546 | 64 | 259 | 0.0 | 1.7 | 0.00 | 0.00 | 0.00 | 32 | 1003.8 |
| 20260504013044 | 64 | 306 | 0.0 | 1.7 | 0.00 | 0.00 | 0.00 | 32 | 1004.0 |
| 20260504011541 | 66 | 319 | 0.0 | 0.9 | 0.00 | 0.00 | 0.00 | 31 | 1004.0 |
| 20260504010039 | 67 | 319 | 0.0 | 2.6 | 0.00 | 0.00 | 0.00 | 30 | 1004.2 |
| 20260504004520 | 69 | 273 | 0.9 | 3.5 | 0.00 | 0.00 | 0.00 | 28 | 1004.3 |
| 20260504003025 | 71 | 309 | 1.7 | 4.3 | 0.00 | 0.00 | 0.00 | 26 | 1004.4 |
| 20260504001600 | 72 | 281 | 2.6 | 7.0 | 0.00 | 0.00 | 0.00 | 26 | 1004.4 |
| 20260504000138 | 72 | 343 | 3.5 | 7.8 | 0.00 | 0.00 | 0.00 | 26 | 1004.5 |
| 20260503234552 | 73 | 295 | 2.6 | 7.8 | 0.00 | 0.00 | 0.00 | 25 | 1004.6 |
| 20260503233042 | 73 | 326 | 3.5 | 9.6 | 0.00 | 0.00 | 0.00 | 25 | 1004.6 |
| 20260503231541 | 73 | 304 | 2.6 | 8.7 | 0.00 | 0.00 | 0.00 | 26 | 1004.7 |
| 20260503230039 | 73 | 292 | 2.6 | 8.7 | 0.00 | 0.00 | 0.00 | 26 | 1004.7 |
| 20260503224539 | 73 | 228 | 1.7 | 12.2 | 0.00 | 0.00 | 0.00 | 28 | 1004.7 |
| 20260503223040 | 73 | 317 | 3.5 | 11.3 | 0.00 | 0.00 | 0.00 | 26 | 1004.8 |
| 20260503221548 | 73 | 330 | 3.5 | 10.4 | 0.00 | 0.00 | 0.00 | 26 | 1004.8 |
| 20260503220034 | 73 | 295 | 3.5 | 13.0 | 0.00 | 0.00 | 0.00 | 28 | 1004.8 |
| 20260503214536 | 73 | 269 | 1.7 | 7.0 | 0.00 | 0.00 | 0.00 | 29 | 1004.9 |
| 20260503213015 | 72 | 302 | 3.5 | 13.0 | 0.00 | 0.00 | 0.00 | 30 | 1005.1 |
| 20260503211515 | 72 | 289 | 5.2 | 13.0 | 0.00 | 0.00 | 0.00 | 30 | 1005.2 |
| 20260503210051 | 71 | 21 | 8.7 | 15.6 | 0.00 | 0.00 | 0.00 | 29 | 1005.5 |